FW6471 Weather Reports


Display with metric or nautical units.
time (UTC)temp
F
wind
direction
speed
MPH
gust
MPH
rain 1hr
in
rain 24hr
in
rain mn
in
humidity
%
barometer
mb
20260901000605 78 34 0.0 0.0 0.00 0.00 0.00 91 1017.9
20260831235605 78 34 0.0 0.0 0.00 0.00 0.00 91 1017.6
20260831235105 78 34 0.0 0.0 0.00 0.00 0.00 91 1017.7
20260831234106 78 34 0.0 0.0 0.00 0.00 0.00 91 1017.6
20260831233605 78 34 0.0 0.0 0.00 0.00 0.00 91 1017.6
20260831233106 78 34 0.0 0.0 0.00 0.00 0.00 91 1017.6
20260831232605 78 34 0.0 0.0 0.00 0.00 0.00 91 1017.5
20260831232105 78 34 0.0 0.0 0.00 0.00 0.00 90 1017.6
20260831231605 78 34 0.0 0.0 0.00 0.00 0.00 90 1017.6
20260831230605 78 39 0.0 0.0 0.00 0.00 0.00 90 1017.5
20260831230110 78 38 0.0 0.0 0.00 0.00 0.00 90 1017.4
20260831225105 78 35 0.0 0.0 0.00 0.00 0.00 90 1017.6
20260831224607 78 35 0.0 0.0 0.00 0.00 0.00 90 1017.6
20260831224105 79 35 0.0 0.0 0.00 0.00 0.00 90 1017.7
20260831223605 79 35 0.0 0.0 0.00 0.00 0.00 89 1017.8
20260831223105 79 35 0.0 0.0 0.00 0.00 0.00 89 1017.7
20260831222605 79 35 0.0 0.0 0.00 0.00 0.00 89 1017.7
20260831222105 79 35 0.0 0.0 0.00 0.00 0.00 89 1017.9
20260831221605 79 34 0.0 0.0 0.00 0.00 0.00 89 1017.9
20260831220606 79 34 0.0 0.0 0.00 0.00 0.00 89 1017.6
20260831220110 79 22 0.0 1.0 0.00 0.00 0.00 89 1017.8
20260831215106 79 16 0.0 0.0 0.00 0.00 0.00 89 1017.8
20260831214105 79 16 0.0 0.0 0.00 0.00 0.00 89 1017.8
20260831213605 80 40 0.0 0.0 0.00 0.00 0.00 89 1017.9
20260831213105 80 61 0.0 2.0 0.00 0.00 0.00 88 1017.7
20260831212606 80 40 0.0 0.0 0.00 0.00 0.00 88 1017.6
20260831212105 80 40 0.0 1.0 0.00 0.00 0.00 88 1017.5
20260831211605 80 47 0.0 0.0 0.00 0.00 0.00 87 1017.7
20260831211105 80 66 0.0 1.0 0.00 0.00 0.00 87 1017.7
20260831210605 80 52 0.0 1.0 0.00 0.00 0.00 86 1017.6
20260831205605 81 115 0.0 1.0 0.00 0.00 0.00 85 1017.7
20260831205105 81 28 0.0 3.0 0.00 0.01 0.00 85 1017.8
20260831204605 81 35 0.0 2.0 0.00 0.01 0.00 87 1017.9
20260831203605 81 47 0.0 1.0 0.00 0.01 0.00 88 1017.6
20260831203105 81 78 0.0 1.0 0.00 0.01 0.00 88 1017.7
20260831202605 81 66 0.0 2.0 0.00 0.01 0.00 87 1017.8
20260831201605 81 46 0.0 1.0 0.00 0.01 0.00 85 1017.9
20260831201105 81 266 0.0 1.0 0.00 0.01 0.00 82 1017.7
20260831200605 81 44 0.0 1.0 0.00 0.01 0.00 83 1017.6
20260831200109 81 35 0.0 0.0 0.00 0.01 0.00 83 1017.6
20260831195605 81 145 0.0 1.0 0.00 0.01 0.00 84 1017.5
20260831195105 82 61 0.0 3.0 0.00 0.01 0.00 84 1017.5
20260831194605 82 331 0.0 2.0 0.00 0.01 0.00 83 1017.4
20260831194104 82 302 0.0 1.0 0.00 0.01 0.00 83 1017.4
20260831193605 82 314 0.0 8.0 0.00 0.01 0.00 83 1017.4
20260831193105 84 311 1.0 7.0 0.00 0.01 0.00 80 1017.4
20260831192605 86 77 1.0 10.0 0.00 0.01 0.00 78 1017.2
20260831192105 88 284 0.0 2.0 0.00 0.01 0.00 74 1017.2
20260831191605 90 298 0.0 3.0 0.00 0.01 0.00 71 1017.0
20260831191106 92 335 0.0 3.0 0.00 0.01 0.00 68 1016.9
20260831190605 93 310 0.0 1.0 0.00 0.01 0.00 66 1017.0
20260831185605 92 40 0.0 0.0 0.00 0.01 0.00 64 1017.0
20260831185105 92 39 0.0 0.0 0.00 0.01 0.00 64 1017.1
20260831184105 92 55 0.0 0.0 0.00 0.01 0.00 70 1017.2
20260831183605 92 319 0.0 0.0 0.00 0.01 0.00 64 1017.2
20260831183105 91 317 0.0 0.0 0.00 0.01 0.00 69 1017.3
20260831182605 91 317 0.0 0.0 0.00 0.01 0.00 68 1017.3
20260831181605 90 317 0.0 0.0 0.00 0.01 0.00 70 1017.6
20260831181105 91 317 0.0 0.0 0.00 0.01 0.00 67 1017.7
20260831180605 91 317 0.0 0.0 0.00 0.01 0.00 68 1017.7
20260831180109 91 318 0.0 0.0 0.00 0.01 0.00 65 1017.7
20260831175605 91 310 0.0 0.0 0.00 0.01 0.00 67 1017.7
20260831175104 91 331 0.0 0.0 0.00 0.01 0.00 65 1017.9
20260831174604 91 14 0.0 0.0 0.00 0.01 0.00 68 1018.0
20260831174105 91 314 0.0 3.0 0.00 0.01 0.00 66 1018.1
20260831173605 91 318 0.0 0.0 0.00 0.01 0.00 66 1018.1
20260831173105 90 314 0.0 0.0 0.00 0.01 0.00 69 1018.2
20260831172605 91 314 0.0 0.0 0.00 0.01 0.00 66 1018.3
20260831172104 91 305 0.0 0.0 0.00 0.01 0.00 69 1018.4
20260831171605 90 135 0.0 0.0 0.00 0.01 0.00 71 1018.6
20260831171105 89 135 0.0 0.0 0.00 0.01 0.00 70 1018.6
20260831170605 89 111 0.0 0.0 0.00 0.01 0.00 71 1018.7
20260831170109 90 13 0.0 0.0 0.00 0.01 0.00 69 1018.7
20260831165604 90 13 0.0 0.0 0.00 0.01 0.00 71 1018.8
20260831165105 91 13 0.0 0.0 0.00 0.01 0.00 66 1018.9
20260831164605 90 13 0.0 0.0 0.00 0.01 0.00 71 1019.0
20260831163605 90 44 0.0 0.0 0.00 0.01 0.00 68 1019.2
20260831163105 90 162 0.0 0.0 0.00 0.01 0.00 71 1019.1
20260831162604 89 73 0.0 0.0 0.00 0.01 0.00 69 1019.1
20260831162105 89 73 0.0 0.0 0.00 0.01 0.00 70 1019.1
20260831161605 89 142 0.0 0.0 0.00 0.01 0.00 72 1019.2
20260831160605 89 109 0.0 0.0 0.00 0.01 0.00 70 1019.2
20260831160109 89 108 0.0 0.0 0.00 0.01 0.00 73 1019.3
20260831155605 88 123 0.0 0.0 0.00 0.01 0.00 74 1019.3
20260831155104 88 96 0.0 0.0 0.00 0.01 0.00 73 1019.4
20260831154105 88 19 0.0 0.0 0.00 0.01 0.00 76 1019.2
20260831153605 88 300 0.0 0.0 0.00 0.01 0.00 74 1019.2
20260831153104 88 137 0.0 0.0 0.00 0.01 0.00 78 1019.3
20260831152605 87 339 0.0 0.0 0.00 0.01 0.00 78 1019.3
20260831152105 87 335 0.0 0.0 0.00 0.01 0.00 76 1019.3
20260831151604 87 334 0.0 0.0 0.00 0.01 0.00 78 1019.4
20260831151105 87 324 0.0 0.0 0.00 0.01 0.00 79 1019.4
20260831150605 87 337 0.0 0.0 0.00 0.01 0.00 78 1019.4
20260831150108 86 336 0.0 0.0 0.00 0.01 0.00 80 1019.4
20260831145604 86 336 0.0 0.0 0.00 0.01 0.00 79 1019.3
20260831145105 86 336 0.0 0.0 0.00 0.01 0.00 82 1019.3
20260831144604 86 336 0.0 0.0 0.00 0.01 0.00 82 1019.3
20260831144105 85 336 0.0 0.0 0.00 0.01 0.00 84 1019.4
20260831143604 84 336 0.0 0.0 0.00 0.01 0.00 84 1019.4
20260831142604 83 336 0.0 0.0 0.00 0.01 0.00 86 1019.5
20260831141605 82 321 0.0 0.0 0.00 0.01 0.00 87 1019.4
20260831141105 81 322 0.0 0.0 0.00 0.01 0.00 88 1019.3
20260831140605 80 320 0.0 0.0 0.00 0.01 0.00 90 1019.4
20260831140109 80 320 0.0 0.0 0.00 0.01 0.00 92 1019.4
20260831135604 79 320 0.0 0.0 0.00 0.01 0.00 93 1019.4
20260831135105 78 320 0.0 0.0 0.00 0.01 0.00 95 1019.3
20260831134605 77 320 0.0 0.0 0.00 0.01 0.00 95 1019.3
20260831133105 77 320 0.0 0.0 0.00 0.01 0.00 95 1019.3
20260831132605 77 320 0.0 0.0 0.00 0.01 0.00 95 1019.2
20260831131604 77 320 0.0 0.0 0.00 0.01 0.00 95 1019.2
20260831131105 77 320 0.0 0.0 0.00 0.01 0.00 95 1019.1
20260831130109 77 320 0.0 0.0 0.00 0.01 0.00 96 1019.1
20260831125604 76 320 0.0 0.0 0.00 0.01 0.00 96 1019.2
20260831124604 76 320 0.0 0.0 0.00 0.01 0.00 96 1019.0
20260831124104 76 320 0.0 0.0 0.00 0.01 0.00 96 1018.9
20260831123604 76 320 0.0 0.0 0.00 0.01 0.00 95 1018.9
20260831123104 75 320 0.0 0.0 0.00 0.01 0.00 95 1018.8
20260831122104 75 320 0.0 0.0 0.00 0.01 0.00 95 1018.9
20260831121605 75 320 0.0 0.0 0.00 0.01 0.00 95 1018.9
20260831121104 75 320 0.0 0.0 0.00 0.01 0.00 95 1018.8
20260831120604 75 320 0.0 0.0 0.00 0.01 0.00 95 1018.7
20260831120108 75 320 0.0 0.0 0.00 0.01 0.00 95 1018.7
20260831115606 75 320 0.0 0.0 0.00 0.01 0.00 95 1018.6
20260831115105 75 320 0.0 0.0 0.00 0.01 0.00 95 1018.5
20260831114605 74 320 0.0 0.0 0.00 0.01 0.00 95 1018.4
20260831114104 74 320 0.0 0.0 0.00 0.01 0.00 95 1018.4
20260831113105 74 320 0.0 0.0 0.00 0.01 0.00 95 1018.3
20260831112604 74 320 0.0 0.0 0.00 0.01 0.00 95 1018.2
20260831112104 74 320 0.0 0.0 0.00 0.01 0.00 95 1018.3
20260831111604 74 320 0.0 0.0 0.00 0.01 0.00 95 1018.2
20260831111105 74 320 0.0 0.0 0.00 0.01 0.00 95 1018.1
20260831110604 74 320 0.0 0.0 0.00 0.01 0.00 95 1018.1
20260831110108 74 320 0.0 0.0 0.00 0.01 0.00 95 1018.0
20260831105605 74 320 0.0 0.0 0.00 0.01 0.00 95 1017.8
20260831105104 74 320 0.0 0.0 0.00 0.01 0.00 95 1017.8
20260831104604 74 320 0.0 0.0 0.00 0.01 0.00 95 1017.7
20260831104104 74 320 0.0 0.0 0.00 0.01 0.00 95 1017.6
20260831103605 74 320 0.0 0.0 0.00 0.01 0.00 95 1017.6
20260831103104 74 320 0.0 0.0 0.00 0.01 0.00 95 1017.6
20260831102604 74 320 0.0 0.0 0.00 0.01 0.00 95 1017.5
20260831102104 74 320 0.0 0.0 0.00 0.01 0.00 95 1017.5
20260831101605 74 320 0.0 0.0 0.00 0.01 0.00 95 1017.5
20260831101104 74 320 0.0 0.0 0.00 0.01 0.00 95 1017.6
20260831100604 74 320 0.0 0.0 0.00 0.01 0.00 95 1017.6
20260831100108 74 320 0.0 0.0 0.00 0.01 0.00 95 1017.5
20260831095104 74 320 0.0 0.0 0.00 0.01 0.00 95 1017.5
20260831094603 74 320 0.0 0.0 0.00 0.01 0.00 95 1017.6
20260831094104 74 320 0.0 0.0 0.00 0.01 0.00 95 1017.6
20260831093604 74 320 0.0 0.0 0.00 0.01 0.00 95 1017.6
20260831093104 74 320 0.0 0.0 0.00 0.01 0.00 95 1017.6
20260831092104 73 320 0.0 0.0 0.00 0.01 0.00 94 1017.5
20260831091604 73 320 0.0 0.0 0.00 0.01 0.00 94 1017.5
20260831090604 73 320 0.0 0.0 0.00 0.01 0.00 94 1017.4
20260831090108 74 320 0.0 0.0 0.00 0.01 0.00 95 1017.3
20260831085604 74 320 0.0 0.0 0.00 0.01 0.00 94 1017.3
20260831085104 73 320 0.0 0.0 0.00 0.01 0.00 94 1017.2
20260831084604 73 320 0.0 0.0 0.00 0.01 0.00 94 1017.3
20260831084104 73 320 0.0 0.0 0.00 0.01 0.00 94 1017.3
20260831083604 73 320 0.0 0.0 0.00 0.01 0.00 94 1017.3
20260831083104 73 320 0.0 0.0 0.00 0.01 0.00 94 1017.3
20260831081604 74 320 0.0 0.0 0.00 0.01 0.00 94 1017.4
20260831081104 74 320 0.0 0.0 0.00 0.01 0.00 94 1017.4
20260831080108 74 320 0.0 0.0 0.00 0.01 0.00 94 1017.3
20260831075104 74 320 0.0 0.0 0.00 0.01 0.00 94 1017.3
20260831074604 74 320 0.0 0.0 0.00 0.01 0.00 94 1017.3
20260831074103 74 320 0.0 0.0 0.00 0.01 0.00 94 1017.3
20260831073604 74 320 0.0 0.0 0.00 0.01 0.00 94 1017.3
20260831073104 74 320 0.0 0.0 0.00 0.01 0.00 94 1017.4
20260831072603 74 320 0.0 0.0 0.00 0.01 0.00 94 1017.5
20260831072104 74 320 0.0 0.0 0.00 0.01 0.00 94 1017.5
20260831071604 74 320 0.0 0.0 0.00 0.01 0.00 94 1017.5
20260831071103 74 320 0.0 0.0 0.00 0.01 0.00 94 1017.6
20260831070604 74 320 0.0 0.0 0.00 0.01 0.00 94 1017.5
20260831065604 74 320 0.0 0.0 0.00 0.01 0.00 94 1017.6
20260831065104 74 320 0.0 0.0 0.00 0.01 0.00 94 1017.6
20260831064603 74 320 0.0 0.0 0.00 0.01 0.00 94 1017.6
20260831064104 74 320 0.0 0.0 0.00 0.01 0.00 94 1017.7
20260831063604 74 320 0.0 0.0 0.00 0.01 0.00 94 1017.8
20260831063104 74 320 0.0 0.0 0.00 0.01 0.00 94 1017.8
20260831062604 74 320 0.0 0.0 0.00 0.01 0.00 94 1017.9
20260831062103 74 320 0.0 0.0 0.00 0.01 0.00 94 1017.9
20260831061605 74 320 0.0 0.0 0.00 0.02 0.00 94 1017.9
20260831061104 74 320 0.0 0.0 0.00 0.02 0.00 94 1018.0
20260831060603 74 320 0.0 0.0 0.00 0.02 0.00 94 1018.1
20260831060108 74 320 0.0 0.0 0.00 0.02 0.00 94 1018.1
20260831055604 74 320 0.0 0.0 0.00 0.02 0.00 94 1018.2
20260831055104 74 320 0.0 0.0 0.00 0.02 0.00 94 1018.3
20260831054103 75 320 0.0 0.0 0.00 0.02 0.00 94 1018.3
20260831053604 75 320 0.0 0.0 0.00 0.02 0.00 94 1018.3
20260831053104 75 320 0.0 0.0 0.00 0.02 0.00 93 1018.3
20260831052603 75 320 0.0 0.0 0.00 0.02 0.00 93 1018.4
20260831052104 75 320 0.0 0.0 0.00 0.02 0.00 93 1018.3
20260831051605 75 320 0.0 0.0 0.00 0.02 0.00 94 1018.4
20260831051104 75 320 0.0 0.0 0.00 0.02 0.00 94 1018.4
20260831050110 75 320 0.0 0.0 0.00 0.02 0.00 93 1018.3
20260831045106 75 320 0.0 0.0 0.00 0.02 0.00 94 1018.3
20260831044606 75 320 0.0 0.0 0.00 0.02 0.00 94 1018.4
20260831044106 75 320 0.0 0.0 0.00 0.02 0.00 93 1018.4
20260831043606 75 320 0.0 0.0 0.00 0.02 0.00 93 1018.5
20260831042606 75 320 0.0 0.0 0.00 0.02 0.00 93 1018.6
20260831042106 75 320 0.0 0.0 0.00 0.02 0.00 93 1018.5
20260831041605 75 320 0.0 0.0 0.00 0.02 0.00 93 1018.5
20260831041106 75 320 0.0 0.0 0.00 0.02 0.00 93 1018.5
20260831040606 75 320 0.0 0.0 0.00 0.02 0.00 93 1018.5
20260831040110 75 320 0.0 0.0 0.00 0.02 0.00 93 1018.6
20260831035605 75 320 0.0 0.0 0.00 0.02 0.02 93 1018.6
20260831035106 75 320 0.0 0.0 0.00 0.02 0.02 93 1018.7
20260831034605 75 320 0.0 0.0 0.00 0.02 0.02 93 1018.7
20260831034105 75 320 0.0 0.0 0.00 0.02 0.02 93 1018.7
20260831033105 75 320 0.0 0.0 0.00 0.02 0.02 93 1018.8
20260831032606 75 320 0.0 0.0 0.00 0.02 0.02 93 1018.8
20260831032105 75 320 0.0 0.0 0.00 0.02 0.02 93 1018.7
20260831031106 75 320 0.0 0.0 0.00 0.02 0.02 93 1018.7
20260831030605 75 320 0.0 0.0 0.00 0.02 0.02 93 1018.8
20260831030110 75 320 0.0 0.0 0.00 0.02 0.02 93 1018.8
20260831025105 75 320 0.0 0.0 0.00 0.02 0.02 93 1018.7
20260831024606 75 320 0.0 0.0 0.00 0.02 0.02 93 1018.8
20260831024106 75 320 0.0 0.0 0.00 0.02 0.02 93 1018.8
20260831023605 76 320 0.0 0.0 0.00 0.02 0.02 92 1018.8
20260831023106 76 320 0.0 0.0 0.00 0.02 0.02 92 1018.7
20260831022605 76 320 0.0 0.0 0.00 0.02 0.02 92 1018.9
20260831022106 76 320 0.0 0.0 0.00 0.02 0.02 92 1018.9
20260831021606 76 320 0.0 0.0 0.00 0.02 0.02 92 1018.9
20260831020606 76 320 0.0 0.0 0.00 0.02 0.02 92 1019.0
20260831020109 76 320 0.0 0.0 0.00 0.02 0.02 92 1019.1
20260831015606 76 320 0.0 0.0 0.00 0.02 0.02 92 1019.1
20260831015106 76 320 0.0 0.0 0.00 0.02 0.02 92 1019.1
20260831014605 76 320 0.0 0.0 0.00 0.02 0.02 92 1019.0
20260831014106 76 320 0.0 0.0 0.00 0.02 0.02 92 1019.1
20260831013606 76 320 0.0 0.0 0.00 0.02 0.02 92 1019.1
20260831013105 76 320 0.0 0.0 0.00 0.02 0.02 92 1019.1
20260831012606 76 320 0.0 0.0 0.00 0.02 0.02 92 1019.1
20260831012105 76 320 0.0 0.0 0.00 0.02 0.02 92 1018.9
20260831011106 76 320 0.0 0.0 0.00 0.02 0.02 92 1018.9
20260831010605 76 320 0.0 0.0 0.00 0.02 0.02 92 1018.8
20260831010110 76 320 0.0 0.0 0.00 0.02 0.02 91 1018.8
20260831005605 76 320 0.0 0.0 0.00 0.02 0.02 91 1018.8
20260831005106 76 320 0.0 0.0 0.00 0.02 0.02 91 1018.7
20260831004606 76 320 0.0 0.0 0.00 0.02 0.02 91 1018.7
20260831004105 76 320 0.0 0.0 0.00 0.02 0.02 91 1018.7
20260831003605 76 320 0.0 0.0 0.00 0.02 0.02 91 1018.6
20260831003105 76 320 0.0 0.0 0.00 0.02 0.02 91 1018.5
20260831002605 76 320 0.0 0.0 0.00 0.02 0.02 91 1018.5
20260831001605 76 320 0.0 0.0 0.00 0.02 0.02 91 1018.4
20260831001105 77 320 0.0 0.0 0.00 0.02 0.02 91 1018.3